Location: Caltech
(34.1382°N, 118.1253°W)
Time: 12:45:17
(UTC-07:00)

Iridium 94 - Visible Passes

Search period start: 29 July 2016 00:00
Search period end: 08 August 2016 00:00
Orbit: 775 x 779 km, 86.4° (Epoch: 29 July)

Date Brightness Start Highest point End Pass type
(mag) Time Alt. Az. Time Alt. Az. Time Alt. Az.
29 Jul 8.3 05:32:33 10° SE 05:36:34 23° E 05:40:34 10° NNE visible
30 Jul 8.8 05:01:41 10° E 05:03:22 12° ENE 05:05:03 10° ENE visible
01 Aug 7.5 05:31:54 10° SSE 05:36:31 34° E 05:41:10 10° NNE visible
02 Aug 8.3 04:59:53 10° ESE 05:03:16 18° E 05:06:39 10° NE visible
04 Aug 6.6 05:31:32 10° SSE 05:36:32 50° E 05:41:34 10° NNE visible
05 Aug 7.8 04:58:57 10° SE 05:03:12 26° E 05:07:28 10° NNE visible
06 Aug 8.5 04:27:32 10° ESE 04:29:59 13° E 04:32:26 10° NE visible
07 Aug 5.8 05:31:25 10° S 05:36:35 77° E 05:41:48 10° N visible
